Time,TemperatureF,DewpointF,PressureIn,WindDirection,WindDirectionDegrees,WindSpeedMPH,WindSpeedGustMPH,Humidity,HourlyPrecipIn,Conditions,Clouds,dailyrainin,SoftwareType,DateUTC
2013-03-18 00:00:00,37.2,36.4,29.20,NE,45,0.0,2.0,97,0.00,RA,FEW,0.00,WeatherDisplay:10.37,2013-03-18 00:00:00,
2013-03-18 00:29:00,37.4,36.9,29.20,NE,45,0.0,2.0,98,0.00,,FEW,0.00,WeatherDisplay:10.37,2013-03-18 00:29:00,
2013-03-18 01:00:00,37.0,36.8,29.20,NE,45,0.0,2.0,99,0.00,,FEW,0.00,WeatherDisplay:10.37,2013-03-18 01:00:00,
2013-03-18 01:29:00,37.2,36.9,29.20,NE,45,0.0,2.0,99,0.00,,FEW,0.00,WeatherDisplay:10.37,2013-03-18 01:29:00,
2013-03-18 01:59:00,37.9,37.7,29.20,NE,45,0.0,2.0,99,0.01,CLR,FEW,0.01,WeatherDisplay:10.37,2013-03-18 01:59:00,
2013-03-18 02:29:00,38.8,38.6,29.20,NE,45,0.0,1.0,99,0.00,CLR,FEW,0.01,WeatherDisplay:10.37,2013-03-18 02:29:00,
2013-03-18 02:59:00,39.2,38.9,29.20,NE,45,0.0,4.0,99,0.00,CLR,FEW,0.01,WeatherDisplay:10.37,2013-03-18 02:59:00,
2013-03-18 03:29:00,39.0,38.8,29.21,NE,45,0.0,6.0,99,0.00,CLR,FEW,0.01,WeatherDisplay:10.37,2013-03-18 03:29:00,
2013-03-18 03:59:00,39.0,38.8,29.20,NE,45,0.0,0.0,99,0.00,CLR,FEW,0.01,WeatherDisplay:10.37,2013-03-18 03:59:00,
2013-03-18 04:29:00,39.2,38.9,29.21,NE,45,0.0,0.0,99,0.00,CLR,FEW,0.01,WeatherDisplay:10.37,2013-03-18 04:29:00,
2013-03-18 04:59:00,39.2,38.9,29.22,NE,45,0.0,0.0,99,0.00,CLR,FEW,0.01,WeatherDisplay:10.37,2013-03-18 04:59:00,
2013-03-18 05:29:00,39.4,39.2,29.22,NE,45,0.0,0.0,99,0.00,CLR,FEW,0.01,WeatherDisplay:10.37,2013-03-18 05:29:00,
2013-03-18 05:59:00,39.7,39.5,29.23,NE,45,0.0,0.0,99,0.00,CLR,FEW,0.01,WeatherDisplay:10.37,2013-03-18 05:59:00,
2013-03-18 06:29:00,40.1,39.8,29.24,NE,45,0.0,6.0,99,0.01,CLR,FEW,0.02,WeatherDisplay:10.37,2013-03-18 06:29:00,
2013-03-18 06:59:00,40.1,39.8,29.24,NE,45,0.0,6.0,99,0.00,,FEW,0.02,WeatherDisplay:10.37,2013-03-18 06:59:00,
2013-03-18 07:29:00,40.6,40.4,29.25,NE,45,1.0,12.0,99,0.00,,FEW,0.02,WeatherDisplay:10.37,2013-03-18 07:29:00,
2013-03-18 07:59:00,41.0,40.7,29.25,NE,45,1.0,15.0,99,0.00,,FEW,0.02,WeatherDisplay:10.37,2013-03-18 07:59:00,
2013-03-18 08:29:00,41.2,40.9,29.26,NE,45,1.0,13.0,99,0.00,,FEW,0.02,WeatherDisplay:10.37,2013-03-18 08:29:00,
2013-03-18 08:59:00,41.4,41.1,29.27,NE,45,6.0,13.0,99,0.00,,FEW,0.02,WeatherDisplay:10.37,2013-03-18 08:59:00,
2013-03-18 09:29:00,41.5,40.5,29.28,NE,45,0.0,12.0,96,0.00,,FEW,0.02,WeatherDisplay:10.37,2013-03-18 09:29:00,
2013-03-18 09:59:00,41.7,40.1,29.29,NE,45,0.0,12.0,94,0.00,,FEW,0.02,WeatherDisplay:10.37,2013-03-18 09:59:00,
2013-03-18 10:29:00,42.1,39.6,29.29,NE,45,2.0,15.0,91,0.01,RA,FEW,0.04,WeatherDisplay:10.37,2013-03-18 10:29:00,
2013-03-18 10:59:00,42.6,39.6,29.30,NE,45,1.0,9.0,89,0.00,,FEW,0.04,WeatherDisplay:10.37,2013-03-18 10:59:00,
2013-03-18 11:29:00,43.2,39.3,29.31,NE,45,1.0,10.0,86,0.00,,FEW,0.04,WeatherDisplay:10.37,2013-03-18 11:29:00,
2013-03-18 11:59:00,44.1,39.5,29.32,NE,45,1.0,10.0,84,0.00,,FEW,0.04,WeatherDisplay:10.37,2013-03-18 11:59:00,
2013-03-18 12:29:00,42.8,37.4,29.33,NE,45,1.0,9.0,81,0.00,,FEW,0.04,WeatherDisplay:10.37,2013-03-18 12:29:00,
2013-03-18 12:59:00,44.1,37.7,29.34,NE,45,1.0,13.0,78,0.00,,FEW,0.04,WeatherDisplay:10.37,2013-03-18 12:59:00,
2013-03-18 13:29:00,44.4,36.0,29.35,NE,45,1.0,10.0,72,0.00,,FEW,0.04,WeatherDisplay:10.37,2013-03-18 13:29:00,
2013-03-18 13:59:00,43.7,35.3,29.35,NE,45,0.0,9.0,72,0.00,,FEW,0.04,WeatherDisplay:10.37,2013-03-18 13:59:00,
2013-03-18 14:29:00,44.6,36.1,29.35,NE,45,0.0,13.0,72,0.00,,FEW,0.04,WeatherDisplay:10.37,2013-03-18 14:29:00,
2013-03-18 14:59:00,45.5,35.2,29.36,NE,45,1.0,13.0,67,0.00,,FEW,0.04,WeatherDisplay:10.37,2013-03-18 14:59:00,
2013-03-18 15:29:00,45.4,35.4,29.36,NE,45,0.0,13.0,68,0.00,,FEW,0.04,WeatherDisplay:10.37,2013-03-18 15:29:00,
2013-03-18 15:59:00,44.2,35.4,29.36,NE,45,0.0,13.0,71,0.00,,FEW,0.04,WeatherDisplay:10.37,2013-03-18 15:59:00,
2013-03-18 16:29:00,42.3,34.9,29.37,NE,45,0.0,12.0,75,0.00,,FEW,0.04,WeatherDisplay:10.37,2013-03-18 16:29:00,
2013-03-18 16:59:00,41.2,35.5,29.38,NE,45,1.0,8.0,80,0.00,,FEW,0.04,WeatherDisplay:10.37,2013-03-18 16:59:00,
2013-03-18 17:29:00,40.8,36.1,29.39,NE,45,0.0,13.0,83,0.01,RA,FEW,0.05,WeatherDisplay:10.37,2013-03-18 17:29:00,
2013-03-18 17:59:00,40.3,36.4,29.39,NE,45,0.0,15.0,86,0.00,CLR,FEW,0.05,WeatherDisplay:10.37,2013-03-18 17:59:00,
2013-03-18 18:29:00,39.9,36.9,29.40,NE,45,1.0,13.0,89,0.00,CLR,FEW,0.05,WeatherDisplay:10.37,2013-03-18 18:29:00,
2013-03-18 18:59:00,39.6,36.6,29.41,NE,45,0.0,13.0,89,0.00,CLR,FEW,0.05,WeatherDisplay:10.37,2013-03-18 18:59:00,
2013-03-18 19:29:00,39.4,36.4,29.43,NE,45,0.0,15.0,89,0.00,CLR,FEW,0.05,WeatherDisplay:10.37,2013-03-18 19:29:00,
2013-03-18 19:59:00,39.2,36.2,29.44,NE,45,1.0,14.0,89,0.00,CLR,FEW,0.05,WeatherDisplay:10.37,2013-03-18 19:59:00,
2013-03-18 20:29:00,39.2,35.9,29.44,NE,45,0.0,12.0,88,0.00,CLR,FEW,0.05,WeatherDisplay:10.37,2013-03-18 20:29:00,
2013-03-18 20:59:00,39.4,36.1,29.45,NE,45,0.0,8.0,88,0.00,CLR,FEW,0.05,WeatherDisplay:10.37,2013-03-18 20:59:00,
2013-03-18 21:29:00,38.8,35.3,29.45,NE,45,0.0,11.0,87,0.00,CLR,FEW,0.05,WeatherDisplay:10.37,2013-03-18 21:29:00,
2013-03-18 21:59:00,38.5,34.7,29.46,NE,45,0.0,12.0,86,0.00,CLR,FEW,0.05,WeatherDisplay:10.37,2013-03-18 21:59:00,
2013-03-18 22:29:00,38.5,34.1,29.46,NE,45,0.0,10.0,84,0.01,RA,FEW,0.06,WeatherDisplay:10.37,2013-03-18 22:29:00,
2013-03-18 22:59:00,38.3,33.0,29.46,NE,45,0.0,11.0,81,0.00,CLR,FEW,0.06,WeatherDisplay:10.37,2013-03-18 22:59:00,
2013-03-18 23:29:00,38.5,32.8,29.47,NE,45,1.0,8.0,80,0.00,CLR,FEW,0.06,WeatherDisplay:10.37,2013-03-18 23:29:00,
2013-03-18 23:59:00,38.5,32.2,29.47,NE,45,0.0,9.0,78,0.00,RA,FEW,0.00,WeatherDisplay:10.37,2013-03-18 23:59:00,